Budapest Ferihegy, Hungary

3:56 PM CEST on July 25, 2017 (GMT +0200)
Ferihegy

Weather History for LHBP - February, 2014

Change the Weather History Date:

Friday, February 14, 2014

  Actual Average Record
Temperature  
Mean Temperature 37 °F -  
Max Temperature 48 °F 44 °F 57 °F (1998)
Min Temperature 26 °F 27 °F 0 °F (2003)
Degree Days  
Heating Degree Days 28    
Moisture  
Dew Point 33 °F    
Average Humidity 77    
Maximum Humidity 100    
Minimum Humidity 54    
Precipitation  
Precipitation 0.00 in - - ()
Sea Level Pressure  
Sea Level Pressure 29.83 in    
Wind  
Wind Speed 8 mph ()    
Max Wind Speed 25 mph    
Max Gust Speed -    
Visibility 4.4 miles    
Events Rain    
Averages and records for this station are not official NWS values.
T = Trace of Precipitation, MM = Missing Value Source: Averaged Metar Reports

Daily Weather History Graph

Daily Weather History Graph

Search for Another Location

Airport or City:

Trip Planner

Search our weather history database for the weather conditions in past years. The results will help you decide how hot, cold, wet, or windy it might be!

Date:

Astronomy

Feb. 14, 2014 Rise Set
Actual Time 6:50 AM CET 5:04 PM CET
Civil Twilight 6:18 AM CET 5:36 PM CET
Nautical Twilight 5:42 AM CET 6:12 PM CET
Astronomical Twilight 5:07 AM CET 6:47 PM CET
Moon 4:54 PM CET (2/14) 6:06 AM CET (2/14)
Length of Visible Light 11h 17m
Length of Day
10h 14m
Full, 100% of the Moon is Illuminated
Feb 14
Full
Feb 15
Full
Feb 22
Last Quarter
Mar 1
New
Mar 8
First Quarter

Hourly Weather History & Observations

Time (CET) Temp. Windchill Dew Point Humidity Pressure Visibility Wind Dir Wind Speed Gust Speed Precip Events Conditions
12:00 AM 41.0 °F 35.2 °F 32.0 °F 70% 29.68 in - SE 9.2 mph - N/A   Clear
12:30 AM 41.0 °F 35.2 °F 32.0 °F 70% 29.68 in - SE 9.2 mph - N/A   Clear
1:00 AM 41.0 °F 35.8 °F 32.0 °F 70% 29.68 in 6.2 mi South 8.1 mph - N/A   Mostly Cloudy
1:30 AM 41.0 °F 34.7 °F 32.0 °F 70% 29.68 in 6.2 mi South 10.4 mph - N/A Rain Light Rain
2:00 AM 39.2 °F 33.6 °F 33.8 °F 81% 29.68 in 5.0 mi South 8.1 mph - N/A Rain Light Rain
2:30 AM 39.2 °F 37.0 °F 35.6 °F 87% 29.68 in 5.0 mi Variable 3.5 mph - N/A Rain Light Rain
3:00 AM 39.2 °F 37.0 °F 35.6 °F 87% 29.68 in 4.3 mi Variable 3.5 mph - N/A Rain Rain
3:30 AM 37.4 °F 34.9 °F 35.6 °F 93% 29.68 in 3.7 mi Variable 3.5 mph - N/A Rain Rain
4:00 AM 37.4 °F 34.9 °F 35.6 °F 93% 29.68 in 4.3 mi Variable 3.5 mph - N/A Rain Light Rain
4:30 AM 37.4 °F 33.8 °F 37.4 °F 100% 29.71 in 4.3 mi South 4.6 mph - N/A Rain Light Rain
5:00 AM 37.4 °F 33.8 °F 37.4 °F 100% 29.71 in 3.1 mi SE 4.6 mph - N/A Rain Light Rain
5:30 AM 37.4 °F 33.8 °F 37.4 °F 100% 29.71 in 3.1 mi ESE 4.6 mph - N/A Rain Light Rain
6:00 AM 37.4 °F 33.8 °F 37.4 °F 100% 29.71 in - SE 4.6 mph - N/A Rain Light Rain
6:30 AM 37.4 °F - 37.4 °F 100% 29.71 in 1.9 mi Variable 1.2 mph - N/A Rain Light Rain
7:00 AM 37.4 °F - 37.4 °F 100% 29.74 in 1.6 mi Calm Calm - N/A Rain Light Rain
7:30 AM 37.4 °F - 37.4 °F 100% 29.74 in 1.2 mi Calm Calm - N/A   Mostly Cloudy
8:00 AM 39.2 °F 35.9 °F 37.4 °F 93% 29.77 in 1.4 mi SSW 4.6 mph - N/A   Mostly Cloudy
8:30 AM 39.2 °F 35.9 °F 39.2 °F 100% 29.77 in 1.9 mi West 4.6 mph - N/A Rain Light Rain
9:00 AM 42.8 °F 39.3 °F 41.0 °F 93% 29.77 in 3.7 mi WSW 5.8 mph - N/A   Mostly Cloudy
9:30 AM 44.6 °F 39.2 °F 41.0 °F 87% 29.77 in 6.2 mi WNW 10.4 mph - N/A   Mostly Cloudy
10:00 AM 44.6 °F 38.1 °F 37.4 °F 76% 29.80 in 6.2 mi NW 13.8 mph - N/A   Mostly Cloudy
10:30 AM 44.6 °F 38.4 °F 37.4 °F 76% 29.80 in 6.2 mi NW 12.7 mph - N/A   Mostly Cloudy
11:00 AM 46.4 °F 39.0 °F 33.8 °F 62% 29.80 in 6.2 mi NW 19.6 mph - N/A   Mostly Cloudy
11:30 AM 46.4 °F 39.0 °F 35.6 °F 66% 29.83 in 6.2 mi WNW 19.6 mph - N/A   Mostly Cloudy
12:00 PM 46.4 °F 38.7 °F 35.6 °F 66% 29.83 in 6.2 mi WNW 20.7 mph - N/A   Mostly Cloudy
12:30 PM 48.2 °F - 33.8 °F 58% 29.83 in 6.2 mi WNW 25.3 mph - N/A   Mostly Cloudy
1:00 PM 48.2 °F - 32.0 °F 54% 29.86 in 6.2 mi WNW 25.3 mph - N/A   Mostly Cloudy
1:30 PM 46.4 °F 39.2 °F 33.8 °F 62% 29.86 in - WNW 18.4 mph - N/A   Clear
2:00 PM 48.2 °F - 33.8 °F 58% 29.86 in - WNW 20.7 mph - N/A   Clear
2:30 PM 48.2 °F - 32.0 °F 54% 29.86 in - WNW 21.9 mph - N/A   Clear
3:00 PM 46.4 °F 39.5 °F 32.0 °F 57% 29.86 in - WNW 17.3 mph - N/A   Clear
3:30 PM 46.4 °F 40.1 °F 32.0 °F 57% 29.89 in - WNW 15.0 mph - N/A   Clear
4:00 PM 46.4 °F 40.7 °F 32.0 °F 57% 29.89 in - WNW 12.7 mph - N/A   Clear
4:30 PM 44.6 °F 38.8 °F 32.0 °F 61% 29.92 in - WNW 11.5 mph - N/A   Clear
5:00 PM 42.8 °F 36.6 °F 30.2 °F 61% 29.92 in - WNW 11.5 mph - N/A   Clear
5:30 PM 41.0 °F 34.3 °F 30.2 °F 65% 29.95 in - WNW 11.5 mph - N/A   Clear
6:00 PM 41.0 °F 35.8 °F 30.2 °F 65% 29.95 in - WNW 8.1 mph - N/A   Clear
6:30 PM 39.2 °F 33.6 °F 28.4 °F 65% 29.95 in - West 8.1 mph - N/A   Clear
7:00 PM 41.0 °F 37.1 °F 28.4 °F 61% 29.98 in - WNW 5.8 mph - N/A   Clear
7:30 PM 39.2 °F 34.2 °F 28.4 °F 65% 29.98 in - West 6.9 mph - N/A   Clear
8:00 PM 32.0 °F 27.5 °F 24.8 °F 75% 29.98 in - WNW 4.6 mph - N/A   Clear
8:30 PM 35.6 °F - 30.2 °F 81% 30.01 in - Variable 1.2 mph - N/A   Clear
9:00 PM 30.2 °F 26.7 °F 24.8 °F 80% 30.01 in - Variable 3.5 mph - N/A   Clear
9:30 PM 28.4 °F 23.3 °F 26.6 °F 93% 30.01 in - North 4.6 mph - N/A   Clear
10:00 PM 28.4 °F 22.2 °F 24.8 °F 86% 30.01 in - NNW 5.8 mph - N/A   Clear
10:30 PM 33.8 °F 27.7 °F 30.2 °F 87% 30.01 in - SSW 6.9 mph - N/A   Clear
11:00 PM 26.6 °F 21.2 °F 23.0 °F 86% 30.04 in - North 4.6 mph - N/A   Clear
11:30 PM 32.0 °F 28.7 °F 28.4 °F 87% 30.04 in - Variable 3.5 mph - N/A   Clear